time, Switch, Flow(0), Analog(2)
yyyy/mm/dd HH:MM:SS.fff, True=FILTERED|False=TOTAL, L/min, V
2023/06/29 06:00:02.133, True, 4.642, 0.134890
2023/06/29 06:00:02.637, True, 4.642, 0.134051
2023/06/29 06:00:03.133, True, 4.380, 0.134585
2023/06/29 06:00:03.637, True, 3.979, 0.133059
2023/06/29 06:00:04.141, True, 2.653, 0.135119
2023/06/29 06:00:04.637, True, 2.359, 0.133135
2023/06/29 06:00:05.141, True, 1.658, 0.133211
2023/06/29 06:00:05.645, True, 1.990, 0.133288
2023/06/29 06:00:06.141, True, 2.022, 0.132830
2023/06/29 06:00:06.645, True, 1.991, 0.131075
2023/06/29 06:00:07.149, True, 1.988, 0.131914
2023/06/29 06:00:07.645, True, 1.685, 0.133898
2023/06/29 06:00:08.149, True, 1.658, 0.132982
2023/06/29 06:00:08.653, True, 1.989, 0.133974
2023/06/29 06:00:09.149, True, 1.685, 0.133211
2023/06/29 06:00:09.653, True, 1.990, 0.133135
2023/06/29 06:00:10.157, True, 1.990, 0.134508
2023/06/29 06:00:10.653, True, 1.684, 0.133593
2023/06/29 06:00:11.157, True, 1.990, 0.132906
2023/06/29 06:00:11.661, True, 1.658, 0.134890
2023/06/29 06:00:12.157, True, 1.685, 0.134203
2023/06/29 06:00:12.661, True, 1.990, 0.134356
2023/06/29 06:00:13.165, True, 1.659, 0.131609
2023/06/29 06:00:13.661, True, 2.021, 0.132372
2023/06/29 06:00:14.165, True, 1.658, 0.135195
2023/06/29 06:00:14.669, True, 1.989, 0.133822
2023/06/29 06:00:15.165, True, 1.685, 0.133669
2023/06/29 06:00:15.669, True, 1.989, 0.134966
2023/06/29 06:00:16.173, True, 1.990, 0.132525
2023/06/29 06:00:16.669, True, 1.685, 0.133288
2023/06/29 06:00:17.173, True, 1.990, 0.134661
2023/06/29 06:00:17.677, True, 1.658, 0.133516
2023/06/29 06:00:18.172, True, 2.022, 0.133135
2023/06/29 06:00:18.677, True, 1.990, 0.133974
2023/06/29 06:00:19.173, True, 1.685, 0.133822
2023/06/29 06:00:19.677, True, 1.990, 0.134279
2023/06/29 06:00:20.181, True, 1.993, 0.132906
2023/06/29 06:00:20.677, True, 1.682, 0.132906
2023/06/29 06:00:21.181, True, 1.990, 0.134127
2023/06/29 06:00:21.685, True, 1.990, 0.132906
2023/06/29 06:00:22.181, True, 1.685, 0.132753
2023/06/29 06:00:22.685, True, 1.990, 0.133898
2023/06/29 06:00:23.189, True, 1.991, 0.134127
2023/06/29 06:00:23.684, True, 1.683, 0.133288
2023/06/29 06:00:24.189, True, 1.990, 0.135805
2023/06/29 06:00:24.693, True, 1.990, 0.134356
2023/06/29 06:00:25.189, True, 2.021, 0.134661
2023/06/29 06:00:25.693, True, 1.659, 0.130541
2023/06/29 06:00:26.197, True, 1.989, 0.134432
2023/06/29 06:00:26.693, True, 1.684, 0.134279
2023/06/29 06:00:27.197, True, 1.989, 0.135271
2023/06/29 06:00:27.701, True, 1.661, 0.132219
2023/06/29 06:00:28.197, True, 1.684, 0.132753
2023/06/29 06:00:28.701, True, 1.987, 0.132143
2023/06/29 06:00:29.205, True, 1.661, 0.132448
2023/06/29 06:00:29.701, True, 2.021, 0.132982
2023/06/29 06:00:30.205, True, 1.658, 0.131838
2023/06/29 06:00:30.709, True, 1.658, 0.132525
2023/06/29 06:00:31.205, True, 2.022, 0.131609
2023/06/29 06:00:31.709, True, 1.989, 0.132372
2023/06/29 06:00:32.213, True, 1.655, 0.134051
2023/06/29 06:00:32.717, True, 1.658, 0.134127
2023/06/29 06:00:33.213, True, 2.023, 0.130770
2023/06/29 06:00:33.717, True, 1.657, 0.132601
2023/06/29 06:00:34.221, True, 1.990, 0.133822
2023/06/29 06:00:34.717, True, 2.022, 0.133516
2023/06/29 06:00:35.221, True, 1.658, 0.134890
2023/06/29 06:00:35.725, True, 1.990, 0.135500
2023/06/29 06:00:36.221, True, 1.687, 0.133822
2023/06/29 06:00:36.725, True, 1.989, 0.134813
2023/06/29 06:00:37.229, True, 1.987, 0.134279
2023/06/29 06:00:37.725, True, 2.025, 0.134508
2023/06/29 06:00:38.229, True, 1.985, 0.136797
2023/06/29 06:00:38.733, True, 1.990, 0.134279
2023/06/29 06:00:39.229, True, 1.688, 0.133669
2023/06/29 06:00:39.733, True, 1.986, 0.133745
2023/06/29 06:00:40.237, True, 1.989, 0.137255
2023/06/29 06:00:40.741, True, 1.990, 0.138170
2023/06/29 06:00:41.237, True, 2.025, 0.135500
2023/06/29 06:00:41.741, True, 1.989, 0.136492
2023/06/29 06:00:42.244, True, 1.659, 0.136187
2023/06/29 06:00:42.741, True, 2.018, 0.138170
2023/06/29 06:00:43.244, True, 1.658, 0.139162
2023/06/29 06:00:43.749, True, 1.990, 0.136416
2023/06/29 06:00:44.245, True, 1.684, 0.136645
2023/06/29 06:00:44.749, True, 1.990, 0.136950
2023/06/29 06:00:45.253, True, 1.989, 0.136187
2023/06/29 06:00:45.749, True, 1.685, 0.137102
2023/06/29 06:00:46.253, True, 1.989, 0.139391
2023/06/29 06:00:46.749, True, 2.022, 0.136034
2023/06/29 06:00:47.253, True, 1.990, 0.136263
2023/06/29 06:00:47.757, True, 1.658, 0.135119
2023/06/29 06:00:48.253, True, 2.022, 0.138857
2023/06/29 06:00:48.757, True, 1.991, 0.137560
2023/06/29 06:00:49.261, True, 1.989, 0.138399
2023/06/29 06:00:49.757, True, 1.686, 0.138628
2023/06/29 06:00:50.261, True, 1.987, 0.137407
2023/06/29 06:00:50.765, True, 1.989, 0.138552
2023/06/29 06:00:51.261, True, 1.685, 0.137636
2023/06/29 06:00:51.765, True, 1.990, 0.137942
2023/06/29 06:00:52.261, True, 2.022, 0.140841
2023/06/29 06:00:52.765, True, 1.990, 0.138552
2023/06/29 06:00:53.269, True, 1.658, 0.140078
2023/06/29 06:00:53.765, True, 2.023, 0.137026
2023/06/29 06:00:54.269, True, 1.659, 0.138323
2023/06/29 06:00:54.773, True, 1.988, 0.141070
2023/06/29 06:00:55.269, True, 1.684, 0.139086
2023/06/29 06:00:55.773, True, 1.990, 0.139620
2023/06/29 06:00:56.277, True, 1.658, 0.139925
2023/06/29 06:00:56.773, True, 1.685, 0.139315
2023/06/29 06:00:57.277, True, 1.989, 0.140917
2023/06/29 06:00:57.781, True, 1.658, 0.139315
2023/06/29 06:00:58.277, True, 1.685, 0.140078
2023/06/29 06:00:58.781, True, 1.990, 0.138933
2023/06/29 06:00:59.285, True, 1.658, 0.139010
2023/06/29 06:00:59.781, True, 1.686, 0.139849
2023/06/29 06:01:00.285, True, 1.656, 0.140536
2023/06/29 06:01:00.789, True, 1.990, 0.139391
2023/06/29 06:01:01.285, True, 1.685, 0.141527
2023/06/29 06:01:01.789, True, 1.990, 0.138781
2023/06/29 06:01:02.293, True, 1.658, 0.140078
2023/06/29 06:01:02.797, True, 1.990, 0.141222
2023/06/29 06:01:03.293, True, 1.684, 0.137865
2023/06/29 06:01:03.797, True, 1.658, 0.140459
2023/06/29 06:01:04.293, True, 2.021, 0.140917
2023/06/29 06:01:04.797, True, 1.658, 0.139162
2023/06/29 06:01:05.301, True, 1.989, 0.140917
2023/06/29 06:01:05.797, True, 1.685, 0.142138
2023/06/29 06:01:06.301, True, 1.989, 0.142443
2023/06/29 06:01:06.805, True, 1.658, 0.138705
2023/06/29 06:01:07.301, True, 1.685, 0.139544
2023/06/29 06:01:07.805, True, 1.990, 0.139849
2023/06/29 06:01:08.309, True, 1.658, 0.141070
2023/06/29 06:01:08.805, True, 2.021, 0.139391
2023/06/29 06:01:09.309, True, 1.658, 0.141909
2023/06/29 06:01:09.805, True, 2.022, 0.141375
2023/06/29 06:01:10.309, True, 1.659, 0.141680
2023/06/29 06:01:10.813, True, 1.988, 0.140383
2023/06/29 06:01:11.309, True, 2.022, 0.139773
2023/06/29 06:01:11.813, True, 1.658, 0.139773
2023/06/29 06:01:12.317, True, 1.993, 0.140993
2023/06/29 06:01:12.813, True, 1.682, 0.140230
2023/06/29 06:01:13.317, True, 1.658, 0.140993
2023/06/29 06:01:13.813, True, 2.021, 0.140612
2023/06/29 06:01:14.317, True, 1.658, 0.140764
2023/06/29 06:01:14.821, True, 1.658, 0.139391
2023/06/29 06:01:15.317, True, 2.022, 0.138170
2023/06/29 06:01:15.821, True, 1.658, 0.140841
2023/06/29 06:01:16.325, True, 1.990, 0.142061
2023/06/29 06:01:16.821, True, 1.685, 0.141756
2023/06/29 06:01:17.325, True, 1.658, 0.138933
2023/06/29 06:01:17.829, True, 1.993, 0.140078
2023/06/29 06:01:18.333, True, 1.655, 0.139925
2023/06/29 06:01:18.829, True, 2.022, 0.140612
2023/06/29 06:01:19.333, True, 1.658, 0.138705
2023/06/29 06:01:19.837, True, 1.658, 0.139544
2023/06/29 06:01:20.333, True, 2.022, 0.138933
2023/06/29 06:01:20.837, True, 1.658, 0.139925
2023/06/29 06:01:21.333, True, 1.685, 0.140383
2023/06/29 06:01:21.837, True, 1.990, 0.137636
2023/06/29 06:01:22.341, True, 1.992, 0.140841
2023/06/29 06:01:22.837, True, 1.682, 0.139544
2023/06/29 06:01:23.341, True, 1.658, 0.142519
2023/06/29 06:01:23.845, True, 1.990, 0.138857
2023/06/29 06:01:24.341, True, 2.022, 0.142138
2023/06/29 06:01:24.845, True, 1.658, 0.139849
2023/06/29 06:01:25.349, True, 1.990, 0.140307
2023/06/29 06:01:25.845, True, 2.022, 0.141375
2023/06/29 06:01:26.349, True, 1.658, 0.142977
2023/06/29 06:01:26.853, True, 1.990, 0.140307
2023/06/29 06:01:27.349, True, 1.684, 0.142519
2023/06/29 06:01:27.853, True, 1.658, 0.137102
2023/06/29 06:01:28.357, True, 1.990, 0.139620
2023/06/29 06:01:28.853, True, 2.022, 0.141909
2023/06/29 06:01:29.357, True, 1.658, 0.139696
2023/06/29 06:01:29.861, True, 1.990, 0.142138
2023/06/29 06:01:30.357, True, 1.685, 0.140383
2023/06/29 06:01:30.861, True, 1.990, 0.138170
2023/06/29 06:01:31.365, True, 1.660, 0.142367
2023/06/29 06:01:31.861, True, 2.019, 0.140764
2023/06/29 06:01:32.365, True, 1.658, 0.141604
2023/06/29 06:01:32.869, True, 1.991, 0.141146
2023/06/29 06:01:33.365, True, 2.020, 0.141985
2023/06/29 06:01:33.869, True, 1.658, 0.140307
2023/06/29 06:01:34.365, True, 2.021, 0.141985
2023/06/29 06:01:34.869, True, 1.658, 0.142138
2023/06/29 06:01:35.373, True, 1.660, 0.139849
2023/06/29 06:01:35.869, True, 1.683, 0.140154
2023/06/29 06:01:36.373, True, 1.990, 0.140993
2023/06/29 06:01:36.877, True, 1.658, 0.142214
2023/06/29 06:01:37.373, True, 1.685, 0.140002
2023/06/29 06:01:37.877, True, 1.989, 0.140688
2023/06/29 06:01:38.381, True, 1.660, 0.141299
2023/06/29 06:01:38.877, True, 2.020, 0.140917
2023/06/29 06:01:39.381, True, 1.990, 0.139620
2023/06/29 06:01:39.885, True, 1.658, 0.139925
2023/06/29 06:01:40.380, True, 1.685, 0.140230
2023/06/29 06:01:40.885, True, 1.989, 0.140307
2023/06/29 06:01:41.389, True, 1.658, 0.140459
2023/06/29 06:01:41.885, True, 2.022, 0.141527
2023/06/29 06:01:42.389, True, 1.657, 0.141299
2023/06/29 06:01:42.893, True, 1.991, 0.138857
2023/06/29 06:01:43.389, True, 1.685, 0.141146
2023/06/29 06:01:43.893, True, 1.989, 0.139773
2023/06/29 06:01:44.396, True, 1.991, 0.139239
2023/06/29 06:01:44.893, True, 1.685, 0.138323
2023/06/29 06:01:45.397, True, 1.988, 0.139620
2023/06/29 06:01:45.893, True, 1.685, 0.139315
2023/06/29 06:01:46.397, True, 1.659, 0.139620
2023/06/29 06:01:46.901, True, 1.987, 0.140841
2023/06/29 06:01:47.397, True, 1.685, 0.140307
2023/06/29 06:01:47.901, True, 1.992, 0.141833
2023/06/29 06:01:48.405, True, 1.987, 0.139925
2023/06/29 06:01:48.901, True, 2.024, 0.138705
2023/06/29 06:01:49.405, True, 1.657, 0.137407
2023/06/29 06:01:49.901, True, 2.021, 0.139696
2023/06/29 06:01:50.405, True, 1.989, 0.137865
2023/06/29 06:01:50.909, True, 1.990, 0.138018
2023/06/29 06:01:51.405, True, 1.685, 0.139239
2023/06/29 06:01:51.909, True, 1.658, 0.138933
2023/06/29 06:01:52.413, True, 1.989, 0.140078
2023/06/29 06:01:52.917, True, 1.989, 0.141756
2023/06/29 06:01:53.413, True, 1.685, 0.139391
2023/06/29 06:01:53.917, True, 1.994, 0.139849
2023/06/29 06:01:54.421, True, 1.985, 0.139773
2023/06/29 06:01:54.917, True, 1.685, 0.138399
2023/06/29 06:01:55.421, True, 1.989, 0.140154
2023/06/29 06:01:55.925, True, 1.658, 0.138247
2023/06/29 06:01:56.421, True, 2.022, 0.139010
2023/06/29 06:01:56.925, True, 1.658, 0.139620
2023/06/29 06:01:57.421, True, 2.022, 0.137560
2023/06/29 06:01:57.925, True, 1.990, 0.138018
2023/06/29 06:01:58.429, True, 1.659, 0.139086
2023/06/29 06:01:58.925, True, 1.684, 0.140307
2023/06/29 06:01:59.429, True, 1.659, 0.138323
2023/06/29 06:01:59.933, True, 1.989, 0.138476
2023/06/29 06:02:00.429, True, 1.684, 0.138857
2023/06/29 06:02:00.934, True, 1.993, 0.138170
2023/06/29 06:02:01.437, True, 1.987, 0.141527
2023/06/29 06:02:01.933, True, 1.684, 0.137331
2023/06/29 06:02:02.437, True, 1.990, 0.138933
2023/06/29 06:02:02.933, True, 2.022, 0.136873
2023/06/29 06:02:03.437, True, 1.659, 0.139086
2023/06/29 06:02:03.941, True, 1.987, 0.138323
2023/06/29 06:02:04.437, True, 1.685, 0.138933
2023/06/29 06:02:04.941, True, 1.992, 0.138933
2023/06/29 06:02:05.445, True, 1.657, 0.138018
2023/06/29 06:02:05.941, True, 2.020, 0.140307
2023/06/29 06:02:06.445, True, 1.660, 0.137789
2023/06/29 06:02:06.949, True, 1.990, 0.138781
2023/06/29 06:02:07.445, True, 1.683, 0.138781
2023/06/29 06:02:07.949, True, 1.992, 0.137331
2023/06/29 06:02:08.453, True, 1.658, 0.139849
2023/06/29 06:02:08.949, True, 2.019, 0.138094
2023/06/29 06:02:09.453, True, 1.658, 0.138781
2023/06/29 06:02:09.957, True, 1.994, 0.140993
2023/06/29 06:02:10.453, True, 1.685, 0.138628
2023/06/29 06:02:10.957, True, 1.986, 0.140688
2023/06/29 06:02:11.460, True, 1.658, 0.138781
2023/06/29 06:02:11.957, True, 2.022, 0.139696
2023/06/29 06:02:12.461, True, 1.991, 0.139467
2023/06/29 06:02:12.965, True, 1.657, 0.138933
2023/06/29 06:02:13.469, True, 1.658, 0.140536
2023/06/29 06:02:13.965, True, 2.022, 0.138018
2023/06/29 06:02:14.469, True, 1.658, 0.138018
2023/06/29 06:02:14.973, True, 1.989, 0.140154
2023/06/29 06:02:15.469, True, 1.685, 0.139086
2023/06/29 06:02:15.973, True, 1.989, 0.138323
2023/06/29 06:02:16.469, True, 1.685, 0.139925
2023/06/29 06:02:16.973, True, 1.658, 0.137331
2023/06/29 06:02:17.476, True, 1.989, 0.137789
2023/06/29 06:02:17.973, True, 1.685, 0.138323
2023/06/29 06:02:18.477, True, 1.661, 0.138781
2023/06/29 06:02:18.973, True, 2.018, 0.140307
2023/06/29 06:02:19.477, True, 1.658, 0.139620
2023/06/29 06:02:19.981, True, 1.658, 0.138323
2023/06/29 06:02:20.477, True, 1.685, 0.137942
2023/06/29 06:02:20.981, True, 1.989, 0.137865
2023/06/29 06:02:21.485, True, 1.990, 0.139315
2023/06/29 06:02:21.981, True, 1.685, 0.137636
2023/06/29 06:02:22.485, True, 1.990, 0.139239
2023/06/29 06:02:22.990, True, 1.990, 0.137865
2023/06/29 06:02:23.485, True, 1.684, 0.139315
2023/06/29 06:02:23.989, True, 1.991, 0.137407
2023/06/29 06:02:24.493, True, 1.657, 0.139773
2023/06/29 06:02:24.989, True, 2.022, 0.138476
2023/06/29 06:02:25.493, True, 1.658, 0.140230
2023/06/29 06:02:25.989, True, 2.023, 0.137560
2023/06/29 06:02:26.494, True, 1.657, 0.138628
2023/06/29 06:02:26.997, True, 1.658, 0.138628
2023/06/29 06:02:27.493, True, 2.021, 0.139849
2023/06/29 06:02:27.997, True, 1.990, 0.138399
2023/06/29 06:02:28.501, True, 1.658, 0.136187
2023/06/29 06:02:28.998, True, 2.022, 0.139315
2023/06/29 06:02:29.501, True, 1.658, 0.137102
2023/06/29 06:02:30.005, True, 1.989, 0.139620
2023/06/29 06:02:30.502, True, 1.685, 0.139010
2023/06/29 06:02:31.006, True, 1.989, 0.137484
2023/06/29 06:02:31.509, True, 1.990, 0.139696
2023/06/29 06:02:32.005, True, 1.685, 0.139925
2023/06/29 06:02:32.509, True, 1.990, 0.137484
2023/06/29 06:02:33.013, True, 1.989, 0.138323
2023/06/29 06:02:33.509, True, 1.685, 0.138781
2023/06/29 06:02:34.014, True, 1.989, 0.138705
2023/06/29 06:02:34.518, True, 1.990, 0.139086
2023/06/29 06:02:35.013, True, 2.022, 0.138628
2023/06/29 06:02:35.517, True, 1.658, 0.140383
2023/06/29 06:02:36.021, True, 1.990, 0.137102
2023/06/29 06:02:36.518, True, 2.022, 0.138399
2023/06/29 06:02:37.021, True, 1.658, 0.140154
2023/06/29 06:02:37.525, True, 1.990, 0.137636
2023/06/29 06:02:38.021, True, 1.685, 0.136721
2023/06/29 06:02:38.525, True, 1.990, 0.138705
2023/06/29 06:02:39.029, True, 1.658, 0.136187
2023/06/29 06:02:39.525, True, 2.022, 0.140002
2023/06/29 06:02:40.029, True, 1.990, 0.138170
2023/06/29 06:02:40.525, True, 1.685, 0.137026
2023/06/29 06:02:41.029, True, 1.990, 0.136950
2023/06/29 06:02:41.533, True, 1.989, 0.137865
2023/06/29 06:02:42.029, True, 1.685, 0.138476
2023/06/29 06:02:42.533, True, 1.990, 0.138857
2023/06/29 06:02:43.037, True, 1.326, 0.136797
2023/06/29 06:02:43.534, True, 2.022, 0.138018
2023/06/29 06:02:44.038, True, 1.658, 0.138323
2023/06/29 06:02:44.541, True, 1.990, 0.135729
2023/06/29 06:02:45.037, True, 1.685, 0.138018
2023/06/29 06:02:45.542, True, 1.990, 0.136873
2023/06/29 06:02:46.045, True, 1.990, 0.138552
2023/06/29 06:02:46.541, True, 1.685, 0.137789
2023/06/29 06:02:47.045, True, 1.989, 0.138552
2023/06/29 06:02:47.549, True, 1.990, 0.136492
2023/06/29 06:02:48.045, True, 1.685, 0.137865
2023/06/29 06:02:48.549, True, 1.989, 0.139467
2023/06/29 06:02:49.053, True, 1.658, 0.138170
2023/06/29 06:02:49.549, True, 2.021, 0.137789
2023/06/29 06:02:50.053, True, 1.990, 0.138552
2023/06/29 06:02:50.557, True, 1.989, 0.137560
2023/06/29 06:02:51.054, True, 1.687, 0.136645
2023/06/29 06:02:51.557, True, 1.987, 0.137026
2023/06/29 06:02:52.054, True, 2.022, 0.137789
2023/06/29 06:02:52.557, True, 1.658, 0.138170
2023/06/29 06:02:53.061, True, 1.991, 0.138857
2023/06/29 06:02:53.557, True, 2.020, 0.136339
2023/06/29 06:02:54.061, True, 1.658, 0.137865
2023/06/29 06:02:54.565, True, 1.990, 0.139696
2023/06/29 06:02:55.061, True, 2.024, 0.140230
2023/06/29 06:02:55.566, True, 1.658, 0.137865
2023/06/29 06:02:56.069, True, 1.987, 0.139391
2023/06/29 06:02:56.566, True, 1.684, 0.137407
2023/06/29 06:02:57.069, True, 1.990, 0.137865
2023/06/29 06:02:57.573, True, 1.990, 0.138552
2023/06/29 06:02:58.078, True, 1.658, 0.136873
2023/06/29 06:02:58.573, True, 2.022, 0.137789
2023/06/29 06:02:59.077, True, 1.658, 0.139086
2023/06/29 06:02:59.573, True, 2.024, 0.135805
2023/06/29 06:03:00.078, True, 1.660, 0.136492
2023/06/29 06:03:00.581, True, 1.986, 0.136263
2023/06/29 06:03:01.077, True, 1.684, 0.138476
2023/06/29 06:03:01.581, True, 1.990, 0.136797
2023/06/29 06:03:02.085, True, 1.658, 0.139925
2023/06/29 06:03:02.581, True, 2.024, 0.135729
2023/06/29 06:03:03.086, True, 1.656, 0.136339
2023/06/29 06:03:03.589, True, 1.991, 0.136873
2023/06/29 06:03:04.085, True, 2.021, 0.138628
2023/06/29 06:03:04.588, True, 1.658, 0.138094
2023/06/29 06:03:05.093, True, 1.989, 0.138170
2023/06/29 06:03:05.589, True, 2.022, 0.137255
2023/06/29 06:03:06.093, True, 1.989, 0.137102
2023/06/29 06:03:06.597, True, 1.989, 0.139010
2023/06/29 06:03:07.093, True, 1.686, 0.138933
2023/06/29 06:03:07.597, True, 1.989, 0.137331
2023/06/29 06:03:08.101, True, 1.658, 0.137331
2023/06/29 06:03:08.597, True, 2.022, 0.135348
2023/06/29 06:03:09.101, True, 1.991, 0.136568
2023/06/29 06:03:09.597, True, 1.684, 0.137179
2023/06/29 06:03:10.101, True, 1.658, 0.137331
2023/06/29 06:03:10.605, True, 1.990, 0.138857
2023/06/29 06:03:11.101, True, 1.684, 0.137255
2023/06/29 06:03:11.605, True, 1.989, 0.135958
2023/06/29 06:03:12.109, True, 1.990, 0.136950
2023/06/29 06:03:12.605, True, 2.025, 0.137560
2023/06/29 06:03:13.109, True, 1.987, 0.135882
2023/06/29 06:03:13.613, True, 1.658, 0.136110
2023/06/29 06:03:14.110, True, 2.021, 0.136797
2023/06/29 06:03:14.613, True, 1.990, 0.136034
2023/06/29 06:03:15.117, True, 1.658, 0.138247
2023/06/29 06:03:15.613, True, 2.022, 0.135500
2023/06/29 06:03:16.117, True, 1.989, 0.136873
2023/06/29 06:03:16.621, True, 1.990, 0.136339
2023/06/29 06:03:17.117, True, 1.684, 0.136416
2023/06/29 06:03:17.622, True, 1.990, 0.137331
2023/06/29 06:03:18.125, True, 1.994, 0.136339
2023/06/29 06:03:18.621, True, 1.681, 0.137179
2023/06/29 06:03:19.126, True, 1.993, 0.135653
2023/06/29 06:03:19.629, True, 1.986, 0.135271
2023/06/29 06:03:20.125, True, 1.684, 0.137636
2023/06/29 06:03:20.629, True, 1.989, 0.134356
2023/06/29 06:03:21.133, True, 1.660, 0.135576
2023/06/29 06:03:21.629, True, 2.020, 0.138552
2023/06/29 06:03:22.133, True, 1.658, 0.135119
2023/06/29 06:03:22.637, True, 1.661, 0.136568
2023/06/29 06:03:23.133, True, 2.018, 0.138399
2023/06/29 06:03:23.637, True, 1.658, 0.136492
2023/06/29 06:03:24.141, True, 1.989, 0.135729
2023/06/29 06:03:24.637, True, 1.685, 0.137179
2023/06/29 06:03:25.141, True, 1.990, 0.136492
2023/06/29 06:03:25.645, True, 1.991, 0.134051
2023/06/29 06:03:26.142, True, 1.684, 0.137331
2023/06/29 06:03:26.645, True, 1.990, 0.135576
2023/06/29 06:03:27.149, True, 1.991, 0.137789
2023/06/29 06:03:27.645, True, 1.683, 0.137331
2023/06/29 06:03:28.149, True, 1.990, 0.134051
2023/06/29 06:03:28.653, True, 1.990, 0.138399
2023/06/29 06:03:29.150, True, 2.022, 0.136416
2023/06/29 06:03:29.654, True, 1.993, 0.135195
2023/06/29 06:03:30.157, True, 1.655, 0.137255
2023/06/29 06:03:30.653, True, 2.024, 0.135653
2023/06/29 06:03:31.157, True, 1.656, 0.136492
2023/06/29 06:03:31.662, True, 1.993, 0.138552
2023/06/29 06:03:32.158, True, 2.019, 0.135653
2023/06/29 06:03:32.661, True, 1.658, 0.136950
2023/06/29 06:03:33.166, True, 1.989, 0.137179
2023/06/29 06:03:33.662, True, 2.022, 0.137789
2023/06/29 06:03:34.165, True, 1.989, 0.136110
2023/06/29 06:03:34.669, True, 1.658, 0.137713
2023/06/29 06:03:35.166, True, 2.021, 0.137636
2023/06/29 06:03:35.669, True, 1.990, 0.135424
2023/06/29 06:03:36.174, True, 1.661, 0.137942
2023/06/29 06:03:36.669, True, 2.019, 0.138094
2023/06/29 06:03:37.174, True, 1.658, 0.135882
2023/06/29 06:03:37.677, True, 1.658, 0.137942
2023/06/29 06:03:38.174, True, 2.022, 0.136645
2023/06/29 06:03:38.677, True, 1.327, 0.136645
2023/06/29 06:03:39.181, True, 1.989, 0.135576
2023/06/29 06:03:39.677, True, 1.685, 0.136797
2023/06/29 06:03:40.181, True, 1.658, 0.136873
2023/06/29 06:03:40.685, True, 1.659, 0.137713
2023/06/29 06:03:41.189, True, 1.989, 0.134661
2023/06/29 06:03:41.686, True, 1.685, 0.137942
2023/06/29 06:03:42.189, True, 1.990, 0.136797
2023/06/29 06:03:42.693, True, 1.658, 0.135805
2023/06/29 06:03:43.189, True, 1.684, 0.136339
2023/06/29 06:03:43.693, True, 1.992, 0.135729
2023/06/29 06:03:44.197, True, 1.989, 0.137407
2023/06/29 06:03:44.693, True, 1.683, 0.134890
2023/06/29 06:03:45.198, True, 1.992, 0.135729
2023/06/29 06:03:45.693, True, 2.019, 0.137331
2023/06/29 06:03:46.198, True, 1.989, 0.138170
2023/06/29 06:03:46.702, True, 1.660, 0.134508
2023/06/29 06:03:47.206, True, 1.990, 0.137026
2023/06/29 06:03:47.702, True, 2.023, 0.135653
2023/06/29 06:03:48.205, True, 1.987, 0.135882
2023/06/29 06:03:48.709, True, 1.991, 0.137713
2023/06/29 06:03:49.205, True, 1.685, 0.135500
2023/06/29 06:03:49.709, True, 1.990, 0.138781
2023/06/29 06:03:50.213, True, 1.655, 0.135653
2023/06/29 06:03:50.709, True, 2.022, 0.136873
2023/06/29 06:03:51.214, True, 1.989, 0.135805
2023/06/29 06:03:51.718, True, 1.658, 0.135576
2023/06/29 06:03:52.214, True, 2.022, 0.135576
2023/06/29 06:03:52.717, True, 1.658, 0.135195
2023/06/29 06:03:53.221, True, 1.993, 0.136721
2023/06/29 06:03:53.718, True, 1.682, 0.136950
2023/06/29 06:03:54.221, True, 1.989, 0.136187
2023/06/29 06:03:54.726, True, 1.658, 0.136873
2023/06/29 06:03:55.222, True, 2.024, 0.135119
2023/06/29 06:03:55.725, True, 1.657, 0.136263
2023/06/29 06:03:56.230, True, 1.990, 0.135729
2023/06/29 06:03:56.726, True, 2.021, 0.137484
2023/06/29 06:03:57.229, True, 1.658, 0.133440
2023/06/29 06:03:57.733, True, 1.991, 0.136873
2023/06/29 06:03:58.229, True, 1.684, 0.136568
2023/06/29 06:03:58.733, True, 1.992, 0.133211
2023/06/29 06:03:59.237, True, 1.658, 0.135653
2023/06/29 06:03:59.734, True, 2.020, 0.136187
2023/06/29 06:04:00.238, True, 1.658, 0.136645
2023/06/29 06:04:00.741, True, 1.990, 0.136568
2023/06/29 06:04:01.238, True, 1.687, 0.137026
2023/06/29 06:04:01.741, True, 1.987, 0.137102
2023/06/29 06:04:02.246, True, 1.990, 0.135500
2023/06/29 06:04:02.741, True, 2.022, 0.135195
2023/06/29 06:04:03.245, True, 1.658, 0.136339
2023/06/29 06:04:03.742, True, 2.021, 0.135042
2023/06/29 06:04:04.246, True, 1.658, 0.135348
2023/06/29 06:04:04.749, True, 1.661, 0.136873
2023/06/29 06:04:05.245, True, 1.682, 0.136416
2023/06/29 06:04:05.750, True, 1.993, 0.135653
2023/06/29 06:04:06.254, True, 1.655, 0.137179
2023/06/29 06:04:06.758, True, 1.990, 0.134890
2023/06/29 06:04:07.254, True, 1.684, 0.135271
2023/06/29 06:04:07.757, True, 1.992, 0.134432
2023/06/29 06:04:08.254, True, 1.683, 0.137102
2023/06/29 06:04:08.758, True, 1.992, 0.135042
2023/06/29 06:04:09.261, True, 1.656, 0.134203
2023/06/29 06:04:09.758, True, 2.022, 0.136873
2023/06/29 06:04:10.262, True, 1.990, 0.136263
2023/06/29 06:04:10.766, True, 1.989, 0.134661
2023/06/29 06:04:11.262, True, 1.684, 0.136110